Regional Weather Roundup
Issued by NWS Newport/Morehead, NC

Current Version | Previous Version | Graphics & Text | Print | Product List | Glossary Off
Versions: 1 2 3 4 5 6 7 8 9 10 11 12 13 14 15 16 17 18 19 20 21 22 23 24 25 26 27 28 29 30 31 32 33 34 35 36 37 38 39 40 41 42 43 44 45 46 47 48 49 50

000
ASUS42 KMHX 290622
RWRMHX
WEATHER ROUNDUP FOR EASTERN NORTH CAROLINA
NATIONAL WEATHER SERVICE NEWPORT/MOREHEAD CITY NC
200 AM EDT TUE JUL 29 2014

NOTE: "FAIR" INDICATES FEW OR NO CLOUDS BELOW 12,000 FEET
WITH NO SIGNIFICANT WEATHER AND/OR OBSTRUCTIONS TO VISIBILITY

NCZ015>017-031-032-045>047-102-103-290700-
NORTH COAST

CITY           SKY/WX    TMP DP  RH WIND       PRES   REMARKS
EDENTON        CLEAR     70  62  76 N5        29.83S
ELIZABETH CITY CLEAR     69  61  75 NW7       29.83R
KITTY HAWK     CLEAR     76  61  61 CALM      29.81S
MANTEO         NOT AVBL

$$

NCZ045>047-081-094-103-104-290700-
CENTRAL COAST

CITY           SKY/WX    TMP DP  RH WIND       PRES   REMARKS
FRISCO         MOCLDY    80  65  59 VRB6      29.82S
SWANQUARTER      N/A     70 N/A N/A CALM      29.79S

$$

NCZ095-097-098-100-101-290700-
SOUTHERN COAST

CITY           SKY/WX    TMP DP  RH WIND       PRES   REMARKS
BEAUFORT       CLEAR     76  71  85 N7        29.83R
CEDAR ISLAND     N/A     79 N/A N/A N16       29.85S
JACKSONVILLE   PTCLDY    74  68  81 N8        29.83R
NEWPORT        NOT AVBL
PINEY ISLAND   CLEAR     78  69  73 N9        29.82F
WILMINGTON     CLEAR     73  70  90 N3        29.83R


$$

NCZ011>013-027>030-043-044-078>080-089-090>093-098-290700-
COASTAL PLAIN

CITY           SKY/WX    TMP DP  RH WIND       PRES   REMARKS
AHOSKIE        CLEAR     67  60  76 CALM      29.85R
CLINTON        PTCLDY    74  64  70 CALM      29.85S
ELIZABETHTOWN  CLEAR     72  66  81 CALM      29.85R
GOLDSBORO      CLEAR     73  64  72 N7        29.83S
GREENVILLE     CLEAR     70  61  73 N3        29.87S
HAVELOCK       CLEAR     74  68  81 N5        29.84S
KENANSVILLE    PTCLDY    72  63  73 N3        29.86R
KINSTON        CLEAR     71  62  73 N5        29.86R
NEW BERN       CLEAR     73  66  78 N5        29.84S
RICHLANDS      CLEAR     70  66  88 CALM      29.85R
ROANOKE RAPIDS NOT AVBL
ROCKY MOUNT    CLEAR     71  58  63 N8        29.85S
WASHINGTON     CLEAR     71  61  71 N6        29.84S
WHITEVILLE     CLEAR     72  71  95 CALM      29.84R

$$

AMZ130-135-150-152-154-156-158-170-250-252-270-ANZ085-086-088-633-658-670-290700-
MARINE OBSERVATIONS

STATION/POSITION TIME  TEMP    WIND        PRES    WAVE   SWELL
                       AIR SEA DIR/SP/G            HT/PER HT/PER
                 (UTC) (F)     (DEG/KT/KT) (MB)    (FT/S) (FT/S)
CHESAPEAKE LIGHT NOT AVBL
BUOY 44014       0600   79 78  320/ 12/ 16 1009.1    3/ 4   2/ 7
DUCK             0600   75 65  320/  9/ 11 1009.0
2E DUCK          0600                        N/A     2/ 8
OREGON INLET     0600   76 80  330/  5/  8 1009.7
BUOY 44095       0600      78                N/A     3/ 8
20E OREGON INLET NOT AVBL
HATTERAS CG      0600   81 82  350/ 15/ 17 1010.1
DIAMOND BUOY     0600          VRB  4/  4  1009.6    4/ 7   3/ 7
CAPE LOOKOUT     0600   77      40/  4/  5 1010.1
BEAUFORT LAB     0600   77 82  360/  8/ 10 1009.8
30 SE NEW RIVER  0600   80 81  330/  6/  8 1010.1    4/ 6   3/ 6
5 SE WRIGHTSVILL 0600   75 82  350/  8/ 10   N/A
BUOY 41002       0536   82 81  230/ 17/ 21 1013.0    6/ 7   2/12
BUOY 41004       0600   83 84  260/ 16/ 17 1008.4    4/ 6   2/ 8

$$



USA.gov is the U.S. government's official web portal to all federal, state and local government web resources and services.